Home > Time Zones > World Clock > Weather > Spain > Palma > Past weeks

Flag for Spain Weather past 2 weeks in Palma, Majorca, Spain

Now
45 °F

Passing clouds.


Feels Like: 38 °F
Forecast: 40 / 56 °F
Wind: 14 mph from Northeast

Location: Palma De Mallorca / Son San Juan

Current Time: Mar 4, 2015 at 9:41:45 PM

Latest Report: Mar 4, 2015 at 9:00 PM


Visibility: N/A

Pressure: 30.36 "Hg

Humidity: 87%

Dew point: 41 °F

Location of PalmaLocation

Historic Weather in Palma — Graph

°F

Palma temperature yesterday

Maximum temperature yesterday: 70 °F (at 2:00 PM)
Minimum temperature yesterday: 50 °F (at 12:00 AM)
Average temperature yesterday: 58 °F

Past Weeks' High & Low Weather Summary

 TemperatureHumidityPressure
High70 °F (Mar 3, 2:00 PM)100% (Feb 19, 9:00 AM)30.45 "Hg (Feb 19, 9:00 AM)
Low32 °F (Feb 23, 1:30 AM)38% (Feb 22, 5:30 PM)29.56 "Hg (Feb 21, 5:30 PM)
Average52 °F81%30.10 "Hg
* Reported Feb 17 8:00 PM — Mar 4 8:30 PM, Palma, Weather by CustomWeather, © 2015

Note: Actual official high and low records may vary slightly from our data, if they occured in-between our weather recording intervals... More about our weather records

Advertising

Palma weather history for previous 24 hours

 ConditionsComfort  
Time TempWeatherWind HumidityBarometerVisibility
8:30 PM
Wed, Mar 4
46 °FPassing clouds.10 mph82%30.33 "HgN/A
8:00 PM46 °FPassing clouds.16 mph87%30.33 "HgN/A
7:30 PM46 °FPartly cloudy.16 mph87%30.33 "HgN/A
7:00 PM46 °FPassing clouds.20 mph87%30.33 "HgN/A
6:30 PM48 °FLight rain. Partly sunny.22 mph82%30.30 "HgN/A
6:00 PM50 °FPartly sunny.20 mph76%30.30 "HgN/A
5:30 PM50 °FScattered clouds.24 mph82%30.27 "HgN/A
5:00 PM50 °FScattered clouds.26 mph82%30.27 "HgN/A
4:30 PM52 °FBroken clouds.23 mph82%30.27 "HgN/A
4:00 PM52 °FRain showers. Partly sunny.22 mph88%30.27 "Hg2 mi
3:30 PM55 °FOvercast.18 mph82%30.24 "HgN/A
3:00 PM55 °FOvercast.14 mph88%30.21 "HgN/A
2:30 PM55 °FMore clouds than sun.15 mph82%30.21 "HgN/A
2:00 PM57 °FRain. Broken clouds.15 mph82%30.21 "HgN/A
1:30 PM57 °FLight rain. Broken clouds.13 mph88%30.21 "HgN/A
1:00 PM59 °FBroken clouds.2 mph88%30.21 "Hg4 mi
12:30 PM59 °FBroken clouds.5 mph88%30.21 "Hg4 mi
12:00 PM57 °FBroken clouds.2 mph94%30.24 "Hg4 mi
11:30 AM57 °FLight rain. Partly sunny.3 mph94%30.24 "Hg4 mi
11:00 AM55 °FFog.3 mph94%30.24 "Hg2 mi
10:30 AM55 °FFog.2 mph94%30.24 "Hg2 mi
10:00 AM55 °FFog.1 mph100%30.24 "Hg2 mi
9:46 AM55 °FFog.1 mph94%30.24 "Hg2 mi
9:30 AM54 °FFog.1 mph100%30.24 "Hg2 mi
9:00 AM54 °FSleet. Partly sunny.1 mph100%30.24 "Hg1 mi
8:30 AM54 °FSleet. Low clouds.1 mph100%30.21 "Hg1 mi
8:00 AM54 °FSleet. Low clouds.1 mph100%30.21 "Hg1 mi
7:30 AM54 °FSleet. Partly sunny.No wind100%30.21 "Hg1 mi
7:00 AM54 °FFog.1 mph100%30.21 "Hg1 mi
6:30 AM54 °FFog.No wind100%30.21 "Hg1 mi
6:00 AM54 °FFog.No wind100%30.21 "Hg1 mi
5:30 AM54 °FFog.No wind100%30.21 "Hg0 mi
5:00 AM54 °FFog.1 mph100%30.21 "Hg0 mi
4:30 AM54 °FFog.1 mph100%30.21 "Hg0 mi
4:00 AM54 °FFog.2 mph100%30.21 "Hg0 mi
3:30 AM54 °FFog.2 mph100%30.21 "Hg0 mi
3:00 AM54 °FCool.1 mph100%30.21 "Hg1 mi
2:30 AM54 °FFog.No wind100%30.24 "Hg1 mi
2:00 AM54 °FFog.No wind94%30.24 "Hg1 mi
1:30 AM52 °FFog.No wind100%30.24 "Hg1 mi
1:00 AM54 °FFog.No wind100%30.24 "Hg1 mi
12:30 AM54 °FFog.No wind100%30.27 "Hg1 mi
12:00 AM54 °FPassing clouds.No wind94%30.27 "Hg1 mi
11:30 PM
Tue, Mar 3
54 °FPassing clouds.6 mph94%30.27 "Hg1 mi
11:00 PM54 °FPassing clouds.5 mph94%30.27 "Hg1 mi
10:30 PM54 °FPassing clouds.No wind100%30.24 "Hg4 mi
10:00 PM54 °FPassing clouds.2 mph94%30.27 "Hg5 mi
9:30 PM55 °FPassing clouds.1 mph94%30.24 "Hg5 mi
9:00 PM55 °FPassing clouds.1 mph94%30.24 "Hg5 mi
Weather by CustomWeather, © 2015

See weather overviewHow to use our weather pages